Location: Laas
(43.4693°N, 0.3073°E)
Time: 15:45:12
(UTC+00:00)

Cosmos 1302 Rocket - Pass Details

Date: 25 October 2020
Orbit: 756 x 777 km, 74.0° (Epoch: 24 November)

Event Time Altitude Azimuth Distance (km) Brightness Sun altitude
Rises 17:42:10 0° 176° (S) 3,218 7.3 -8.4°
Reaches altitude 10° 17:44:39 10° 169° (S) 2,300 6.5 -8.9°
Maximum altitude 17:49:27 38° 102° (ESE) 1,160 4.5 -9.7°
Drops below altitude 10° 17:54:18 10° 35° (NE) 2,327 6.1 -10.6°
Sets 17:56:50 0° 28° (NNE) 3,262 6.9 -11.0°
